Time,TemperatureF,DewpointF,PressureIn,WindDirection,WindDirectionDegrees,WindSpeedMPH,WindSpeedGustMPH,Humidity,HourlyPrecipIn,Conditions,Clouds,dailyrainin,SoftwareType,DateUTC
2013-10-19 00:03:00,53.5,46.8,29.57,NE,54,1.0,3.0,78,0.00,,,0.00,Wunderground v.1.15,2013-10-19 05:03:00,
2013-10-19 00:08:00,53.5,46.8,29.58,NNW,337,3.0,4.0,78,0.00,,,0.00,Wunderground v.1.15,2013-10-19 05:08:00,
2013-10-19 00:13:00,53.4,46.7,29.57,NNE,28,5.0,5.0,78,0.00,,,0.00,Wunderground v.1.15,2013-10-19 05:13:00,
2013-10-19 00:18:00,53.4,47.0,29.58,WNW,301,5.0,5.0,79,0.00,,,0.00,Wunderground v.1.15,2013-10-19 05:18:00,
2013-10-19 00:24:00,53.3,46.6,29.57,NE,44,4.0,4.0,78,0.00,,,0.00,Wunderground v.1.15,2013-10-19 05:24:00,
2013-10-19 00:29:00,53.3,47.0,29.57,NNW,329,2.0,4.0,79,0.00,,,0.00,Wunderground v.1.15,2013-10-19 05:29:00,
2013-10-19 00:34:00,53.3,47.3,29.57,North,354,0.0,2.0,80,0.00,,,0.00,Wunderground v.1.15,2013-10-19 05:34:00,
2013-10-19 00:40:00,53.1,46.1,29.57,NE,42,3.0,3.0,77,0.00,,,0.00,Wunderground v.1.15,2013-10-19 05:40:00,
2013-10-19 00:46:00,53.0,46.3,29.57,North,1,5.0,5.0,78,0.00,,,0.00,Wunderground v.1.15,2013-10-19 05:46:00,
2013-10-19 00:52:00,53.0,46.7,29.57,NNE,18,1.0,3.0,79,0.00,,,0.00,Wunderground v.1.15,2013-10-19 05:52:00,
2013-10-19 00:57:00,53.0,46.3,29.57,NNE,25,1.0,4.0,78,0.00,,,0.00,Wunderground v.1.15,2013-10-19 05:57:00,
2013-10-19 01:02:00,52.9,46.2,29.57,NW,304,2.0,2.0,78,0.00,,,0.00,Wunderground v.1.15,2013-10-19 06:02:00,
2013-10-19 01:07:00,52.9,46.2,29.57,NW,323,4.0,4.0,78,0.00,,,0.00,Wunderground v.1.15,2013-10-19 06:07:00,
2013-10-19 01:13:00,52.7,46.0,29.58,NNW,348,4.0,4.0,78,0.00,,,0.00,Wunderground v.1.15,2013-10-19 06:13:00,
2013-10-19 01:18:00,52.6,45.9,29.57,NW,314,1.0,4.0,78,0.00,,,0.00,Wunderground v.1.15,2013-10-19 06:18:00,
2013-10-19 01:24:00,52.4,45.7,29.57,NW,311,4.0,5.0,78,0.00,,,0.00,Wunderground v.1.15,2013-10-19 06:24:00,
2013-10-19 01:29:00,52.1,45.8,29.57,SW,236,5.0,5.0,79,0.00,,,0.00,Wunderground v.1.15,2013-10-19 06:29:00,
2013-10-19 01:34:00,51.8,46.2,29.56,NNW,347,3.0,5.0,81,0.00,,,0.00,Wunderground v.1.15,2013-10-19 06:34:00,
2013-10-19 01:40:00,51.8,45.8,29.56,North,352,7.0,7.0,80,0.00,,,0.00,Wunderground v.1.15,2013-10-19 06:40:00,
2013-10-19 01:45:00,51.8,45.8,29.56,WNW,300,1.0,7.0,80,0.00,,,0.00,Wunderground v.1.15,2013-10-19 06:45:00,
2013-10-19 01:50:00,51.5,45.5,29.56,NW,324,3.0,3.0,80,0.00,,,0.00,Wunderground v.1.15,2013-10-19 06:50:00,
2013-10-19 01:56:00,51.2,45.6,29.56,NNW,340,3.0,4.0,81,0.00,,,0.00,Wunderground v.1.15,2013-10-19 06:56:00,
2013-10-19 02:01:00,51.0,45.4,29.56,WNW,291,2.0,2.0,81,0.00,,,0.00,Wunderground v.1.15,2013-10-19 07:01:00,
2013-10-19 02:06:00,51.0,46.0,29.56,WNW,295,3.0,6.0,83,0.00,,,0.00,Wunderground v.1.15,2013-10-19 07:06:00,
2013-10-19 02:11:00,50.9,45.6,29.55,NNW,333,3.0,5.0,82,0.00,,,0.00,Wunderground v.1.15,2013-10-19 07:11:00,
2013-10-19 02:16:00,50.8,45.2,29.56,NW,307,3.0,5.0,81,0.00,,,0.00,Wunderground v.1.15,2013-10-19 07:16:00,
2013-10-19 02:21:00,50.7,45.4,29.55,North,9,6.0,6.0,82,0.00,,,0.00,Wunderground v.1.15,2013-10-19 07:21:00,
2013-10-19 02:26:00,50.7,45.4,29.54,NW,317,6.0,7.0,82,0.00,,,0.00,Wunderground v.1.15,2013-10-19 07:26:00,
2013-10-19 02:31:00,50.6,45.3,29.55,WNW,302,5.0,5.0,82,0.00,,,0.00,Wunderground v.1.15,2013-10-19 07:31:00,
2013-10-19 02:36:00,50.5,45.2,29.55,NW,311,6.0,7.0,82,0.00,,,0.00,Wunderground v.1.15,2013-10-19 07:36:00,
2013-10-19 02:41:00,50.4,45.4,29.54,NW,309,5.0,6.0,83,0.00,,,0.00,Wunderground v.1.15,2013-10-19 07:41:00,
2013-10-19 02:46:00,50.3,45.3,29.54,NW,322,4.0,7.0,83,0.00,,,0.00,Wunderground v.1.15,2013-10-19 07:46:00,
2013-10-19 02:51:00,50.1,45.1,29.54,NW,317,6.0,8.0,83,0.00,,,0.00,Wunderground v.1.15,2013-10-19 07:51:00,
2013-10-19 02:56:00,50.0,45.0,29.54,WNW,301,2.0,8.0,83,0.00,,,0.00,Wunderground v.1.15,2013-10-19 07:56:00,
2013-10-19 03:01:00,49.8,44.8,29.54,NW,304,1.0,7.0,83,0.00,,,0.00,Wunderground v.1.15,2013-10-19 08:01:00,
2013-10-19 03:06:00,49.8,45.2,29.54,NW,317,5.0,7.0,84,0.00,,,0.00,Wunderground v.1.15,2013-10-19 08:06:00,
2013-10-19 03:11:00,49.7,45.4,29.54,NNE,13,2.0,4.0,85,0.00,,,0.00,Wunderground v.1.15,2013-10-19 08:11:00,
2013-10-19 03:16:00,49.5,45.2,29.54,NW,323,1.0,7.0,85,0.00,,,0.01,Wunderground v.1.15,2013-10-19 08:16:00,
2013-10-19 03:21:00,49.4,45.4,29.53,NW,310,2.0,4.0,86,0.00,,,0.01,Wunderground v.1.15,2013-10-19 08:21:00,
2013-10-19 03:26:00,49.2,45.2,29.53,NW,321,3.0,7.0,86,0.00,,,0.01,Wunderground v.1.15,2013-10-19 08:26:00,
2013-10-19 03:31:00,49.2,45.2,29.53,North,350,4.0,5.0,86,0.00,,,0.01,Wunderground v.1.15,2013-10-19 08:31:00,
2013-10-19 03:36:00,49.1,45.1,29.53,NW,323,4.0,5.0,86,0.00,,,0.01,Wunderground v.1.15,2013-10-19 08:36:00,
2013-10-19 03:41:00,49.0,45.3,29.53,NW,316,2.0,3.0,87,0.00,,,0.01,Wunderground v.1.15,2013-10-19 08:41:00,
2013-10-19 03:46:00,49.0,45.0,29.53,West,270,3.0,6.0,86,0.00,,,0.01,Wunderground v.1.15,2013-10-19 08:46:00,
2013-10-19 03:51:00,49.0,45.0,29.53,WNW,290,1.0,4.0,86,0.00,,,0.01,Wunderground v.1.15,2013-10-19 08:51:00,
2013-10-19 03:56:00,48.9,44.9,29.53,NW,323,4.0,4.0,86,0.00,,,0.01,Wunderground v.1.15,2013-10-19 08:56:00,
2013-10-19 04:01:00,48.9,45.2,29.53,NW,317,0.0,2.0,87,0.00,,,0.01,Wunderground v.1.15,2013-10-19 09:01:00,
2013-10-19 04:06:00,48.9,44.9,29.52,NNE,23,3.0,5.0,86,0.00,,,0.01,Wunderground v.1.15,2013-10-19 09:06:00,
2013-10-19 04:11:00,49.0,45.0,29.53,NW,308,2.0,3.0,86,0.00,,,0.01,Wunderground v.1.15,2013-10-19 09:11:00,
2013-10-19 04:16:00,48.9,45.2,29.53,West,266,1.0,5.0,87,0.00,,,0.01,Wunderground v.1.15,2013-10-19 09:16:00,
2013-10-19 04:21:00,48.8,45.1,29.53,WNW,300,3.0,3.0,87,0.00,,,0.01,Wunderground v.1.15,2013-10-19 09:21:00,
2013-10-19 04:26:00,48.7,45.3,29.54,NW,307,2.0,4.0,88,0.00,,,0.01,Wunderground v.1.15,2013-10-19 09:26:00,
2013-10-19 04:31:00,48.6,45.2,29.53,WNW,301,3.0,4.0,88,0.00,,,0.01,Wunderground v.1.15,2013-10-19 09:31:00,
2013-10-19 04:37:00,48.4,44.7,29.53,WNW,284,0.0,6.0,87,0.00,,,0.01,Wunderground v.1.15,2013-10-19 09:37:00,
2013-10-19 04:42:00,48.2,44.5,29.53,WNW,297,3.0,4.0,87,0.00,,,0.01,Wunderground v.1.15,2013-10-19 09:42:00,
2013-10-19 04:47:00,48.0,44.6,29.53,NW,316,4.0,6.0,88,0.00,,,0.01,Wunderground v.1.15,2013-10-19 09:47:00,
2013-10-19 04:52:00,47.8,44.7,29.53,WNW,298,2.0,4.0,89,0.00,,,0.01,Wunderground v.1.15,2013-10-19 09:52:00,
2013-10-19 04:57:00,47.6,44.8,29.53,NW,310,5.0,5.0,90,0.00,,,0.02,Wunderground v.1.15,2013-10-19 09:57:00,
2013-10-19 05:02:00,47.5,45.0,29.53,NW,326,1.0,4.0,91,0.00,,,0.02,Wunderground v.1.15,2013-10-19 10:02:00,
2013-10-19 05:07:00,47.4,44.9,29.53,WNW,301,2.0,5.0,91,0.00,,,0.02,Wunderground v.1.15,2013-10-19 10:07:00,
2013-10-19 05:12:00,47.3,44.8,29.53,NW,319,6.0,7.0,91,0.00,,,0.02,Wunderground v.1.15,2013-10-19 10:12:00,
2013-10-19 05:17:00,47.1,44.6,29.54,SW,229,2.0,8.0,91,0.00,,,0.03,Wunderground v.1.15,2013-10-19 10:17:00,
2013-10-19 05:22:00,46.9,44.4,29.53,West,279,2.0,7.0,91,0.00,,,0.03,Wunderground v.1.15,2013-10-19 10:22:00,
2013-10-19 05:27:00,46.8,44.6,29.53,West,280,2.0,7.0,92,0.00,,,0.03,Wunderground v.1.15,2013-10-19 10:27:00,
2013-10-19 05:32:00,46.6,44.4,29.54,WNW,295,5.0,7.0,92,0.00,,,0.03,Wunderground v.1.15,2013-10-19 10:32:00,
2013-10-19 05:37:00,46.5,44.3,29.54,WNW,297,6.0,10.0,92,0.00,,,0.03,Wunderground v.1.15,2013-10-19 10:37:00,
2013-10-19 05:42:00,46.4,44.2,29.55,WNW,300,5.0,8.0,92,0.00,,,0.03,Wunderground v.1.15,2013-10-19 10:42:00,
2013-10-19 05:47:00,46.3,44.1,29.56,West,281,6.0,11.0,92,0.00,,,0.03,Wunderground v.1.15,2013-10-19 10:47:00,
2013-10-19 05:52:00,46.1,43.9,29.55,SSW,208,4.0,12.0,92,0.00,,,0.03,Wunderground v.1.15,2013-10-19 10:52:00,
2013-10-19 05:57:00,46.0,43.5,29.55,NW,316,4.0,12.0,91,0.00,,,0.03,Wunderground v.1.15,2013-10-19 10:57:00,
2013-10-19 06:02:00,45.7,42.9,29.56,NW,311,10.0,13.0,90,0.00,,,0.04,Wunderground v.1.15,2013-10-19 11:02:00,
2013-10-19 06:07:00,45.4,42.9,29.55,NW,321,8.0,13.0,91,0.00,,,0.04,Wunderground v.1.15,2013-10-19 11:07:00,
2013-10-19 06:12:00,45.3,42.8,29.56,WNW,290,7.0,9.0,91,0.00,,,0.04,Wunderground v.1.15,2013-10-19 11:12:00,
2013-10-19 06:17:00,45.1,42.6,29.56,SW,222,1.0,9.0,91,0.00,,,0.04,Wunderground v.1.15,2013-10-19 11:17:00,
2013-10-19 06:22:00,45.0,42.5,29.56,NNW,339,4.0,12.0,91,0.00,,,0.04,Wunderground v.1.15,2013-10-19 11:22:00,
2013-10-19 06:27:00,44.9,42.7,29.56,WNW,286,2.0,12.0,92,0.00,,,0.04,Wunderground v.1.15,2013-10-19 11:27:00,
2013-10-19 06:32:00,44.8,42.6,29.57,WNW,303,7.0,13.0,92,0.00,,,0.04,Wunderground v.1.15,2013-10-19 11:32:00,
2013-10-19 06:37:00,44.7,42.5,29.58,WNW,300,3.0,13.0,92,0.00,,,0.04,Wunderground v.1.15,2013-10-19 11:37:00,
2013-10-19 06:42:00,44.6,42.4,29.59,West,268,4.0,10.0,92,0.00,,,0.04,Wunderground v.1.15,2013-10-19 11:42:00,
2013-10-19 06:47:00,44.6,42.4,29.60,WNW,290,4.0,10.0,92,0.00,,,0.04,Wunderground v.1.15,2013-10-19 11:47:00,
2013-10-19 06:52:00,44.5,42.3,29.60,West,263,6.0,12.0,92,0.17,,,0.06,Wunderground v.1.15,2013-10-19 11:52:00,
2013-10-19 06:57:00,44.2,42.0,29.59,WNW,284,5.0,16.0,92,0.17,,,0.07,Wunderground v.1.15,2013-10-19 11:57:00,
2013-10-19 07:02:00,44.0,41.8,29.60,West,270,4.0,9.0,92,0.11,,,0.08,Wunderground v.1.15,2013-10-19 12:02:00,
2013-10-19 07:07:00,43.9,42.0,29.60,WNW,291,3.0,10.0,93,0.08,,,0.08,Wunderground v.1.15,2013-10-19 12:07:00,
2013-10-19 07:12:00,43.8,41.9,29.59,NW,305,2.0,10.0,93,0.05,,,0.08,Wunderground v.1.15,2013-10-19 12:12:00,
2013-10-19 07:17:00,43.7,41.5,29.59,West,269,5.0,10.0,92,0.00,,,0.08,Wunderground v.1.15,2013-10-19 12:17:00,
2013-10-19 07:22:00,43.6,41.4,29.60,WSW,253,8.0,8.0,92,0.00,,,0.08,Wunderground v.1.15,2013-10-19 12:22:00,
2013-10-19 07:27:00,43.6,41.7,29.60,North,359,4.0,8.0,93,0.00,,,0.08,Wunderground v.1.15,2013-10-19 12:27:00,
2013-10-19 07:32:00,43.5,41.6,29.60,NNW,337,5.0,11.0,93,0.00,,,0.09,Wunderground v.1.15,2013-10-19 12:32:00,
2013-10-19 07:37:00,43.5,41.6,29.60,WNW,290,5.0,11.0,93,0.15,,,0.11,Wunderground v.1.15,2013-10-19 12:37:00,
2013-10-19 07:42:00,43.4,41.5,29.60,WSW,252,2.0,7.0,93,0.11,,,0.11,Wunderground v.1.15,2013-10-19 12:42:00,
2013-10-19 07:47:00,43.3,41.4,29.60,WNW,290,4.0,7.0,93,0.08,,,0.12,Wunderground v.1.15,2013-10-19 12:47:00,
2013-10-19 07:53:00,43.3,41.4,29.60,West,268,3.0,6.0,93,0.08,,,0.12,Wunderground v.1.15,2013-10-19 12:53:00,
2013-10-19 07:58:00,43.4,41.5,29.61,West,280,4.0,8.0,93,0.05,,,0.12,Wunderground v.1.15,2013-10-19 12:58:00,
2013-10-19 08:03:00,43.4,41.5,29.60,NNW,347,2.0,6.0,93,0.00,,,0.12,Wunderground v.1.15,2013-10-19 13:03:00,
2013-10-19 08:08:00,43.4,41.5,29.60,WNW,295,9.0,9.0,93,0.00,,,0.12,Wunderground v.1.15,2013-10-19 13:08:00,
2013-10-19 08:13:00,43.4,41.5,29.60,West,262,1.0,4.0,93,0.00,,,0.12,Wunderground v.1.15,2013-10-19 13:13:00,
2013-10-19 08:18:00,43.5,41.6,29.61,West,274,3.0,6.0,93,0.00,,,0.12,Wunderground v.1.15,2013-10-19 13:18:00,
2013-10-19 08:23:00,43.5,41.6,29.61,WNW,286,3.0,5.0,93,0.00,,,0.12,Wunderground v.1.15,2013-10-19 13:23:00,
2013-10-19 08:28:00,43.5,41.6,29.62,WNW,284,2.0,5.0,93,0.00,,,0.12,Wunderground v.1.15,2013-10-19 13:28:00,
2013-10-19 08:33:00,43.5,41.3,29.62,WNW,301,2.0,8.0,92,0.00,,,0.12,Wunderground v.1.15,2013-10-19 13:33:00,
2013-10-19 08:38:00,43.5,41.3,29.62,WSW,255,0.0,8.0,92,0.00,,,0.12,Wunderground v.1.15,2013-10-19 13:38:00,
2013-10-19 08:43:00,43.5,41.3,29.62,WNW,302,5.0,10.0,92,0.00,,,0.12,Wunderground v.1.15,2013-10-19 13:43:00,
2013-10-19 08:48:00,43.3,41.1,29.63,WNW,301,7.0,10.0,92,0.00,,,0.12,Wunderground v.1.15,2013-10-19 13:48:00,
2013-10-19 08:53:00,43.2,41.0,29.63,WNW,297,3.0,10.0,92,0.00,,,0.12,Wunderground v.1.15,2013-10-19 13:53:00,
2013-10-19 08:58:00,43.2,41.0,29.63,WNW,288,7.0,10.0,92,0.00,,,0.12,Wunderground v.1.15,2013-10-19 13:58:00,
2013-10-19 09:03:00,43.2,40.5,29.63,WNW,292,4.0,10.0,90,0.00,,,0.12,Wunderground v.1.15,2013-10-19 14:03:00,
2013-10-19 09:08:00,43.2,40.8,29.63,SE,124,2.0,10.0,91,0.00,,,0.12,Wunderground v.1.15,2013-10-19 14:08:00,
2013-10-19 09:13:00,43.4,40.9,29.63,West,264,1.0,8.0,91,0.00,,,0.12,Wunderground v.1.15,2013-10-19 14:13:00,
2013-10-19 09:18:00,43.4,40.4,29.64,East,94,6.0,11.0,89,0.00,,,0.12,Wunderground v.1.15,2013-10-19 14:18:00,
2013-10-19 09:23:00,43.5,40.5,29.64,West,276,3.0,9.0,89,0.00,,,0.12,Wunderground v.1.15,2013-10-19 14:23:00,
2013-10-19 09:28:00,43.4,40.1,29.64,NW,323,3.0,10.0,88,0.00,,,0.12,Wunderground v.1.15,2013-10-19 14:28:00,
2013-10-19 09:33:00,43.3,39.4,29.64,WSW,257,8.0,14.0,86,0.00,,,0.12,Wunderground v.1.15,2013-10-19 14:33:00,
2013-10-19 09:38:00,43.3,39.7,29.64,West,278,3.0,14.0,87,0.00,,,0.12,Wunderground v.1.15,2013-10-19 14:38:00,
2013-10-19 09:43:00,43.3,39.4,29.64,WNW,301,3.0,14.0,86,0.00,,,0.12,Wunderground v.1.15,2013-10-19 14:43:00,
2013-10-19 09:48:00,43.6,39.7,29.64,NW,321,5.0,14.0,86,0.00,,,0.12,Wunderground v.1.15,2013-10-19 14:48:00,
2013-10-19 09:53:00,44.3,40.7,29.64,NW,319,3.0,7.0,87,0.00,,,0.12,Wunderground v.1.15,2013-10-19 14:53:00,
2013-10-19 09:58:00,44.3,40.1,29.65,West,272,7.0,7.0,85,0.00,,,0.12,Wunderground v.1.15,2013-10-19 14:58:00,
2013-10-19 10:03:00,44.1,40.2,29.64,NW,308,2.0,5.0,86,0.00,,,0.12,Wunderground v.1.15,2013-10-19 15:03:00,
2013-10-19 10:08:00,44.0,40.1,29.65,WNW,294,6.0,10.0,86,0.00,,,0.12,Wunderground v.1.15,2013-10-19 15:08:00,
2013-10-19 10:13:00,43.7,39.5,29.65,West,277,4.0,11.0,85,0.00,,,0.12,Wunderground v.1.15,2013-10-19 15:13:00,
2013-10-19 10:18:00,43.5,39.0,29.65,WNW,295,7.0,13.0,84,0.00,,,0.12,Wunderground v.1.15,2013-10-19 15:18:00,
2013-10-19 10:23:00,43.4,38.9,29.65,South,181,6.0,15.0,84,0.00,,,0.12,Wunderground v.1.15,2013-10-19 15:23:00,
2013-10-19 10:28:00,43.5,39.0,29.66,WNW,300,3.0,15.0,84,0.00,,,0.12,Wunderground v.1.15,2013-10-19 15:28:00,
2013-10-19 10:33:00,43.7,38.9,29.66,WNW,290,4.0,9.0,83,0.00,,,0.12,Wunderground v.1.15,2013-10-19 15:33:00,
2013-10-19 10:38:00,43.7,38.9,29.66,NW,309,11.0,13.0,83,0.00,,,0.12,Wunderground v.1.15,2013-10-19 15:38:00,
2013-10-19 10:43:00,43.5,38.7,29.66,WNW,298,8.0,11.0,83,0.00,,,0.12,Wunderground v.1.15,2013-10-19 15:43:00,
2013-10-19 10:48:00,43.5,39.0,29.66,NW,311,2.0,11.0,84,0.00,,,0.12,Wunderground v.1.15,2013-10-19 15:48:00,
2013-10-19 10:53:00,43.3,38.5,29.66,West,281,5.0,13.0,83,0.00,,,0.12,Wunderground v.1.15,2013-10-19 15:53:00,
2013-10-19 10:58:00,43.2,38.4,29.66,WNW,297,8.0,13.0,83,0.00,,,0.12,Wunderground v.1.15,2013-10-19 15:58:00,
2013-10-19 11:04:00,43.3,38.8,29.66,WNW,295,4.0,7.0,84,0.00,,,0.12,Wunderground v.1.15,2013-10-19 16:04:00,
2013-10-19 11:09:00,43.4,38.3,29.66,West,281,8.0,10.0,82,0.00,,,0.12,Wunderground v.1.15,2013-10-19 16:09:00,
2013-10-19 11:14:00,43.4,37.6,29.67,WSW,258,7.0,11.0,80,0.00,,,0.12,Wunderground v.1.15,2013-10-19 16:14:00,
2013-10-19 11:19:00,43.5,37.7,29.66,WNW,295,4.0,11.0,80,0.00,,,0.12,Wunderground v.1.15,2013-10-19 16:19:00,
2013-10-19 11:24:00,43.8,37.7,29.66,North,6,5.0,8.0,79,0.00,,,0.12,Wunderground v.1.15,2013-10-19 16:24:00,
2013-10-19 11:29:00,43.9,37.8,29.66,West,270,5.0,8.0,79,0.00,,,0.12,Wunderground v.1.15,2013-10-19 16:29:00,
2013-10-19 11:34:00,44.1,38.0,29.66,WSW,256,6.0,8.0,79,0.00,,,0.12,Wunderground v.1.15,2013-10-19 16:34:00,
2013-10-19 11:39:00,44.3,37.9,29.66,West,262,6.0,9.0,78,0.00,,,0.12,Wunderground v.1.15,2013-10-19 16:39:00,
2013-10-19 11:44:00,44.6,38.2,29.66,West,278,0.0,9.0,78,0.00,,,0.12,Wunderground v.1.15,2013-10-19 16:44:00,
2013-10-19 11:49:00,44.9,37.5,29.66,WNW,291,6.0,11.0,75,0.00,,,0.12,Wunderground v.1.15,2013-10-19 16:49:00,
2013-10-19 11:54:00,45.0,37.9,29.66,WNW,301,5.0,9.0,76,0.00,,,0.12,Wunderground v.1.15,2013-10-19 16:54:00,
2013-10-19 11:59:00,45.2,38.1,29.66,WNW,290,5.0,9.0,76,0.00,,,0.12,Wunderground v.1.15,2013-10-19 16:59:00,
2013-10-19 12:04:00,45.6,38.5,29.66,NW,308,4.0,8.0,76,0.00,,,0.00,Wunderground v.1.15,2013-10-19 17:04:00,
2013-10-19 12:09:00,45.6,38.1,29.66,West,271,2.0,8.0,75,0.00,,,0.00,Wunderground v.1.15,2013-10-19 17:09:00,
2013-10-19 12:14:00,46.2,38.7,29.66,NW,317,5.0,5.0,75,0.00,,,0.00,Wunderground v.1.15,2013-10-19 17:14:00,
2013-10-19 12:19:00,46.0,38.5,29.66,WNW,285,6.0,7.0,75,0.00,,,0.00,Wunderground v.1.15,2013-10-19 17:19:00,
2013-10-19 12:24:00,46.1,38.3,29.65,WSW,257,1.0,7.0,74,0.00,,,0.00,Wunderground v.1.15,2013-10-19 17:24:00,
2013-10-19 12:29:00,46.1,38.3,29.65,West,269,3.0,7.0,74,0.00,,,0.00,Wunderground v.1.15,2013-10-19 17:29:00,
2013-10-19 12:34:00,46.2,38.7,29.65,NW,323,3.0,6.0,75,0.00,,,0.00,Wunderground v.1.15,2013-10-19 17:34:00,
2013-10-19 12:39:00,46.5,38.3,29.65,West,281,1.0,8.0,73,0.00,,,0.00,Wunderground v.1.15,2013-10-19 17:39:00,
2013-10-19 12:44:00,46.9,38.7,29.65,WNW,297,2.0,8.0,73,0.00,,,0.00,Wunderground v.1.15,2013-10-19 17:44:00,
2013-10-19 12:49:00,47.0,38.8,29.65,West,274,4.0,8.0,73,0.00,,,0.00,Wunderground v.1.15,2013-10-19 17:49:00,
2013-10-19 12:54:00,46.9,38.7,29.65,WNW,285,3.0,6.0,73,0.00,,,0.00,Wunderground v.1.15,2013-10-19 17:54:00,
2013-10-19 12:59:00,47.0,38.8,29.65,South,172,2.0,7.0,73,0.00,,,0.00,Wunderground v.1.15,2013-10-19 17:59:00,
2013-10-19 13:04:00,47.3,38.7,29.65,WNW,285,4.0,5.0,72,0.00,,,0.00,Wunderground v.1.15,2013-10-19 18:04:00,
2013-10-19 13:09:00,47.5,38.2,29.65,NNE,27,4.0,7.0,70,0.00,,,0.00,Wunderground v.1.15,2013-10-19 18:09:00,
2013-10-19 13:14:00,47.5,37.8,29.65,West,264,3.0,7.0,69,0.00,,,0.00,Wunderground v.1.15,2013-10-19 18:14:00,
2013-10-19 13:19:00,47.4,38.1,29.65,WNW,287,3.0,7.0,70,0.00,,,0.00,Wunderground v.1.15,2013-10-19 18:19:00,
2013-10-19 13:25:00,47.5,38.6,29.65,NW,308,3.0,5.0,71,0.00,,,0.00,Wunderground v.1.15,2013-10-19 18:25:00,
2013-10-19 13:30:00,47.8,38.1,29.65,WNW,284,5.0,10.0,69,0.00,,,0.00,Wunderground v.1.15,2013-10-19 18:30:00,
2013-10-19 13:35:00,47.7,38.0,29.64,NW,321,4.0,7.0,69,0.00,,,0.00,Wunderground v.1.15,2013-10-19 18:35:00,
2013-10-19 13:40:00,47.6,37.9,29.64,NW,318,5.0,5.0,69,0.00,,,0.00,Wunderground v.1.15,2013-10-19 18:40:00,
2013-10-19 13:45:00,48.1,38.0,29.64,West,277,2.0,5.0,68,0.00,,,0.00,Wunderground v.1.15,2013-10-19 18:45:00,
2013-10-19 13:50:00,48.4,37.2,29.64,West,281,0.0,2.0,65,0.00,,,0.00,Wunderground v.1.15,2013-10-19 18:50:00,
2013-10-19 13:55:00,49.2,38.3,29.64,NW,314,2.0,11.0,66,0.00,,,0.00,Wunderground v.1.15,2013-10-19 18:55:00,
2013-10-19 14:00:00,49.6,37.1,29.64,WNW,300,6.0,7.0,62,0.00,,,0.00,Wunderground v.1.15,2013-10-19 19:00:00,
2013-10-19 14:05:00,50.0,38.3,29.64,WNW,292,2.0,7.0,64,0.00,,,0.00,Wunderground v.1.15,2013-10-19 19:05:00,
2013-10-19 14:10:00,50.5,38.4,29.64,SW,232,1.0,3.0,63,0.00,,,0.00,Wunderground v.1.15,2013-10-19 19:10:00,
2013-10-19 14:15:00,50.9,38.3,29.64,SW,226,5.0,7.0,62,0.00,,,0.00,Wunderground v.1.15,2013-10-19 19:15:00,
2013-10-19 14:20:00,50.9,37.9,29.64,West,269,4.0,4.0,61,0.00,,,0.00,Wunderground v.1.15,2013-10-19 19:20:00,
2013-10-19 14:25:00,50.3,36.9,29.64,NW,306,5.0,9.0,60,0.00,,,0.00,Wunderground v.1.15,2013-10-19 19:25:00,
2013-10-19 14:30:00,50.4,37.4,29.64,WNW,286,6.0,7.0,61,0.00,,,0.00,Wunderground v.1.15,2013-10-19 19:30:00,
2013-10-19 14:35:00,50.4,36.6,29.64,West,262,4.0,10.0,59,0.00,,,0.00,Wunderground v.1.15,2013-10-19 19:35:00,
2013-10-19 14:40:00,50.9,37.9,29.64,WNW,292,3.0,4.0,61,0.00,,,0.00,Wunderground v.1.15,2013-10-19 19:40:00,
2013-10-19 14:45:00,51.0,38.0,29.64,West,269,6.0,6.0,61,0.00,,,0.00,Wunderground v.1.15,2013-10-19 19:45:00,
2013-10-19 14:50:00,51.0,37.6,29.64,WNW,291,2.0,3.0,60,0.00,,,0.00,Wunderground v.1.15,2013-10-19 19:50:00,
2013-10-19 14:55:00,51.3,37.0,29.64,WNW,300,5.0,11.0,58,0.00,,,0.00,Wunderground v.1.15,2013-10-19 19:55:00,
2013-10-19 15:00:00,51.4,37.1,29.64,West,266,2.0,4.0,58,0.00,,,0.00,Wunderground v.1.15,2013-10-19 20:00:00,
2013-10-19 15:05:00,51.8,37.9,29.64,West,269,1.0,8.0,59,0.00,,,0.00,Wunderground v.1.15,2013-10-19 20:05:00,
2013-10-19 15:10:00,52.0,37.2,29.63,North,352,2.0,3.0,57,0.00,,,0.00,Wunderground v.1.15,2013-10-19 20:10:00,
2013-10-19 15:15:00,52.1,37.8,29.64,WNW,293,4.0,9.0,58,0.00,,,0.00,Wunderground v.1.15,2013-10-19 20:15:00,
2013-10-19 15:20:00,52.4,37.6,29.64,SW,222,1.0,4.0,57,0.00,,,0.00,Wunderground v.1.15,2013-10-19 20:20:00,
2013-10-19 15:25:00,52.3,37.1,29.64,NW,313,3.0,7.0,56,0.00,,,0.00,Wunderground v.1.15,2013-10-19 20:25:00,
2013-10-19 15:30:00,52.0,36.8,29.64,WNW,289,4.0,4.0,56,0.00,,,0.00,Wunderground v.1.15,2013-10-19 20:30:00,
2013-10-19 15:35:00,52.3,37.5,29.64,SSW,198,3.0,6.0,57,0.00,,,0.00,Wunderground v.1.15,2013-10-19 20:35:00,
2013-10-19 15:40:00,52.7,37.4,29.64,WNW,285,4.0,4.0,56,0.00,,,0.00,Wunderground v.1.15,2013-10-19 20:40:00,
2013-10-19 15:45:00,53.0,37.7,29.64,SW,217,3.0,6.0,56,0.00,,,0.00,Wunderground v.1.15,2013-10-19 20:45:00,
2013-10-19 15:50:00,53.3,38.0,29.63,SW,218,3.0,4.0,56,0.00,,,0.00,Wunderground v.1.15,2013-10-19 20:50:00,
2013-10-19 15:55:00,52.8,37.1,29.63,WNW,293,5.0,8.0,55,0.00,,,0.00,Wunderground v.1.15,2013-10-19 20:55:00,
2013-10-19 16:00:00,52.5,37.2,29.64,WNW,291,1.0,4.0,56,0.00,,,0.00,Wunderground v.1.15,2013-10-19 21:00:00,
2013-10-19 16:05:00,52.9,37.6,29.64,SW,236,1.0,5.0,56,0.00,,,0.00,Wunderground v.1.15,2013-10-19 21:05:00,
2013-10-19 16:10:00,53.0,36.3,29.64,West,276,1.0,2.0,53,0.00,,,0.00,Wunderground v.1.15,2013-10-19 21:10:00,
2013-10-19 16:15:00,52.9,36.2,29.63,West,281,3.0,5.0,53,0.00,,,0.00,Wunderground v.1.15,2013-10-19 21:15:00,
2013-10-19 16:20:00,52.7,36.5,29.64,WNW,285,2.0,3.0,54,0.00,,,0.00,Wunderground v.1.15,2013-10-19 21:20:00,
2013-10-19 16:25:00,52.9,36.7,29.63,SW,236,0.0,4.0,54,0.00,,,0.00,Wunderground v.1.15,2013-10-19 21:25:00,
2013-10-19 16:30:00,53.2,37.0,29.63,NW,316,2.0,2.0,54,0.00,,,0.00,Wunderground v.1.15,2013-10-19 21:30:00,
2013-10-19 16:35:00,53.4,36.7,29.64,SW,226,3.0,5.0,53,0.00,,,0.00,Wunderground v.1.15,2013-10-19 21:35:00,
2013-10-19 16:40:00,53.5,36.3,29.64,SW,236,3.0,4.0,52,0.00,,,0.00,Wunderground v.1.15,2013-10-19 21:40:00,
2013-10-19 16:45:00,53.3,36.1,29.64,NW,311,4.0,7.0,52,0.00,,,0.00,Wunderground v.1.15,2013-10-19 21:45:00,
2013-10-19 16:50:00,53.1,35.9,29.64,WNW,295,1.0,3.0,52,0.00,,,0.00,Wunderground v.1.15,2013-10-19 21:50:00,
2013-10-19 16:55:00,53.6,36.9,29.63,WSW,243,2.0,4.0,53,0.00,,,0.00,Wunderground v.1.15,2013-10-19 21:55:00,
2013-10-19 17:00:00,53.9,36.7,29.63,SW,221,4.0,4.0,52,0.00,,,0.00,Wunderground v.1.15,2013-10-19 22:00:00,
2013-10-19 17:05:00,53.5,37.3,29.63,WSW,246,1.0,4.0,54,0.00,,,0.00,Wunderground v.1.15,2013-10-19 22:05:00,
2013-10-19 17:10:00,53.5,36.8,29.63,WSW,255,6.0,6.0,53,0.00,,,0.00,Wunderground v.1.15,2013-10-19 22:10:00,
2013-10-19 17:15:00,53.2,35.5,29.63,SW,220,2.0,7.0,51,0.00,,,0.00,Wunderground v.1.15,2013-10-19 22:15:00,
2013-10-19 17:20:00,52.9,35.2,29.63,SSW,203,3.0,4.0,51,0.00,,,0.00,Wunderground v.1.15,2013-10-19 22:20:00,
2013-10-19 17:25:00,53.0,34.8,29.63,West,277,2.0,5.0,50,0.00,,,0.00,Wunderground v.1.15,2013-10-19 22:25:00,
2013-10-19 17:30:00,52.7,34.6,29.63,WNW,291,2.0,3.0,50,0.00,,,0.00,Wunderground v.1.15,2013-10-19 22:30:00,
2013-10-19 17:35:00,52.7,35.6,29.63,SSW,210,4.0,4.0,52,0.00,,,0.00,Wunderground v.1.15,2013-10-19 22:35:00,
2013-10-19 17:40:00,52.7,35.6,29.64,WSW,249,1.0,2.0,52,0.00,,,0.00,Wunderground v.1.15,2013-10-19 22:40:00,
2013-10-19 17:45:00,52.6,36.4,29.63,SSW,205,2.0,3.0,54,0.00,,,0.00,Wunderground v.1.15,2013-10-19 22:45:00,
2013-10-19 17:50:00,51.8,36.1,29.63,SSW,212,3.0,4.0,55,0.00,,,0.00,Wunderground v.1.15,2013-10-19 22:50:00,
2013-10-19 17:55:00,51.1,36.8,29.63,SW,214,2.0,4.0,58,0.00,,,0.00,Wunderground v.1.15,2013-10-19 22:55:00,
2013-10-19 18:00:00,50.5,37.1,29.63,SW,219,0.0,2.0,60,0.00,,,0.00,Wunderground v.1.15,2013-10-19 23:00:00,
2013-10-19 18:05:00,50.0,37.1,29.63,SW,221,1.0,2.0,61,0.00,,,0.00,Wunderground v.1.15,2013-10-19 23:05:00,
2013-10-19 18:10:00,49.5,36.6,29.63,SW,217,1.0,1.0,61,0.00,,,0.00,Wunderground v.1.15,2013-10-19 23:10:00,
2013-10-19 18:15:00,49.0,37.3,29.63,SW,217,0.0,2.0,64,0.00,,,0.00,Wunderground v.1.15,2013-10-19 23:15:00,
2013-10-19 18:20:00,48.5,37.3,29.63,SSW,213,0.0,0.0,65,0.00,,,0.00,Wunderground v.1.15,2013-10-19 23:20:00,
2013-10-19 18:25:00,48.0,37.9,29.64,SSE,153,0.0,0.0,68,0.00,,,0.00,Wunderground v.1.15,2013-10-19 23:25:00,
2013-10-19 18:30:00,47.8,38.8,29.64,SSW,212,0.0,0.0,71,0.00,,,0.00,Wunderground v.1.15,2013-10-19 23:30:00,
2013-10-19 18:35:00,47.1,37.8,29.64,SSW,208,0.0,0.0,70,0.00,,,0.00,Wunderground v.1.15,2013-10-19 23:35:00,
2013-10-19 18:40:00,46.8,38.6,29.64,SE,133,0.0,0.0,73,0.00,,,0.00,Wunderground v.1.15,2013-10-19 23:40:00,
2013-10-19 18:45:00,46.4,38.6,29.64,SSE,148,1.0,1.0,74,0.00,,,0.00,Wunderground v.1.15,2013-10-19 23:45:00,
2013-10-19 18:50:00,46.1,38.3,29.64,SE,136,0.0,1.0,74,0.00,,,0.00,Wunderground v.1.15,2013-10-19 23:50:00,
2013-10-19 18:55:00,45.8,38.3,29.65,SSW,198,0.0,2.0,75,0.00,,,0.00,Wunderground v.1.15,2013-10-19 23:55:00,
2013-10-19 19:00:00,45.5,38.4,29.64,SSW,208,2.0,2.0,76,0.00,,,0.00,Wunderground v.1.15,2013-10-20 00:00:00,
2013-10-19 19:05:00,45.2,38.4,29.64,SSW,208,1.0,2.0,77,0.00,,,0.00,Wunderground v.1.15,2013-10-20 00:05:00,
2013-10-19 19:10:00,45.1,38.6,29.65,SSE,158,0.0,0.0,78,0.00,,,0.00,Wunderground v.1.15,2013-10-20 00:10:00,
2013-10-19 19:15:00,44.8,38.7,29.65,South,174,2.0,2.0,79,0.00,,,0.00,Wunderground v.1.15,2013-10-20 00:15:00,
2013-10-19 19:20:00,44.6,38.5,29.65,SE,141,0.0,2.0,79,0.00,,,0.00,Wunderground v.1.15,2013-10-20 00:20:00,
2013-10-19 19:25:00,44.4,38.6,29.65,SSE,155,1.0,2.0,80,0.00,,,0.00,Wunderground v.1.15,2013-10-20 00:25:00,
2013-10-19 19:30:00,44.1,38.3,29.65,SSW,205,1.0,1.0,80,0.00,,,0.00,Wunderground v.1.15,2013-10-20 00:30:00,
2013-10-19 19:35:00,43.9,38.4,29.65,South,173,0.0,1.0,81,0.00,,,0.00,Wunderground v.1.15,2013-10-20 00:35:00,
2013-10-19 19:41:00,43.7,38.6,29.65,SW,217,2.0,2.0,82,0.00,,,0.00,Wunderground v.1.15,2013-10-20 00:41:00,
2013-10-19 19:46:00,43.5,38.4,29.65,SSW,204,1.0,2.0,82,0.00,,,0.00,Wunderground v.1.15,2013-10-20 00:46:00,
2013-10-19 19:51:00,43.3,38.5,29.65,South,191,1.0,2.0,83,0.00,,,0.00,Wunderground v.1.15,2013-10-20 00:51:00,
2013-10-19 19:56:00,43.1,38.3,29.65,SW,219,1.0,2.0,83,0.00,,,0.00,Wunderground v.1.15,2013-10-20 00:56:00,
2013-10-19 20:01:00,43.0,38.2,29.65,SSW,211,2.0,2.0,83,0.00,,,0.00,Wunderground v.1.15,2013-10-20 01:01:00,
2013-10-19 20:06:00,42.9,38.1,29.65,South,188,1.0,3.0,83,0.00,,,0.00,Wunderground v.1.15,2013-10-20 01:06:00,
2013-10-19 20:11:00,42.8,38.0,29.65,SSE,166,0.0,2.0,83,0.00,,,0.00,Wunderground v.1.15,2013-10-20 01:11:00,
2013-10-19 20:16:00,42.7,38.2,29.65,South,184,0.0,2.0,84,0.00,,,0.00,Wunderground v.1.15,2013-10-20 01:16:00,
2013-10-19 20:21:00,42.5,38.3,29.66,SSW,201,2.0,2.0,85,0.00,,,0.00,Wunderground v.1.15,2013-10-20 01:21:00,
2013-10-19 20:26:00,42.3,38.1,29.66,SSW,210,1.0,2.0,85,0.00,,,0.00,Wunderground v.1.15,2013-10-20 01:26:00,
2013-10-19 20:31:00,42.3,38.1,29.66,SE,134,0.0,2.0,85,0.00,,,0.00,Wunderground v.1.15,2013-10-20 01:31:00,
2013-10-19 20:36:00,42.1,38.2,29.66,SW,215,1.0,2.0,86,0.00,,,0.00,Wunderground v.1.15,2013-10-20 01:36:00,
2013-10-19 20:41:00,42.0,38.1,29.66,SW,225,0.0,2.0,86,0.00,,,0.00,Wunderground v.1.15,2013-10-20 01:41:00,
2013-10-19 20:46:00,41.8,37.9,29.66,SSW,212,2.0,3.0,86,0.00,,,0.00,Wunderground v.1.15,2013-10-20 01:46:00,
2013-10-19 20:51:00,41.7,37.8,29.66,SW,219,1.0,2.0,86,0.00,,,0.00,Wunderground v.1.15,2013-10-20 01:51:00,
2013-10-19 20:56:00,41.6,37.7,29.66,South,187,1.0,2.0,86,0.00,,,0.00,Wunderground v.1.15,2013-10-20 01:56:00,
2013-10-19 21:01:00,41.6,37.7,29.66,SSW,205,1.0,2.0,86,0.00,,,0.00,Wunderground v.1.15,2013-10-20 02:01:00,
2013-10-19 21:06:00,41.5,37.6,29.66,SSW,211,1.0,3.0,86,0.00,,,0.00,Wunderground v.1.15,2013-10-20 02:06:00,
2013-10-19 21:11:00,41.5,37.6,29.66,SW,221,1.0,3.0,86,0.00,,,0.00,Wunderground v.1.15,2013-10-20 02:11:00,
2013-10-19 21:16:00,41.6,37.7,29.67,South,176,2.0,3.0,86,0.00,,,0.00,Wunderground v.1.15,2013-10-20 02:16:00,
2013-10-19 21:21:00,41.5,37.6,29.67,SSW,201,1.0,1.0,86,0.00,,,0.00,Wunderground v.1.15,2013-10-20 02:21:00,
2013-10-19 21:26:00,41.5,37.6,29.66,South,188,2.0,2.0,86,0.00,,,0.00,Wunderground v.1.15,2013-10-20 02:26:00,
2013-10-19 21:31:00,41.4,37.5,29.67,SSE,155,0.0,2.0,86,0.00,,,0.00,Wunderground v.1.15,2013-10-20 02:31:00,
2013-10-19 21:36:00,41.3,37.4,29.67,SSE,167,1.0,2.0,86,0.00,,,0.00,Wunderground v.1.15,2013-10-20 02:36:00,
2013-10-19 21:42:00,41.3,37.4,29.67,SSW,205,2.0,2.0,86,0.00,,,0.00,Wunderground v.1.15,2013-10-20 02:42:00,
2013-10-19 21:47:00,41.2,37.3,29.67,SSW,195,2.0,3.0,86,0.00,,,0.00,Wunderground v.1.15,2013-10-20 02:47:00,
2013-10-19 21:52:00,41.0,37.4,29.67,SSW,195,1.0,1.0,87,0.00,,,0.00,Wunderground v.1.15,2013-10-20 02:52:00,
2013-10-19 21:57:00,40.9,37.3,29.67,SE,143,0.0,2.0,87,0.00,,,0.00,Wunderground v.1.15,2013-10-20 02:57:00,
2013-10-19 22:02:00,40.7,37.4,29.67,SE,136,0.0,1.0,88,0.00,,,0.00,Wunderground v.1.15,2013-10-20 03:02:00,
2013-10-19 22:07:00,40.6,37.3,29.67,SW,219,2.0,2.0,88,0.00,,,0.00,Wunderground v.1.15,2013-10-20 03:07:00,
2013-10-19 22:12:00,40.4,37.1,29.67,SSW,204,1.0,1.0,88,0.00,,,0.00,Wunderground v.1.15,2013-10-20 03:12:00,
2013-10-19 22:17:00,40.1,37.1,29.67,SSW,205,0.0,1.0,89,0.00,,,0.00,Wunderground v.1.15,2013-10-20 03:17:00,
2013-10-19 22:22:00,40.0,37.0,29.67,SSE,162,1.0,2.0,89,0.00,,,0.00,Wunderground v.1.15,2013-10-20 03:22:00,
2013-10-19 22:27:00,40.0,37.3,29.67,South,176,0.0,3.0,90,0.00,,,0.00,Wunderground v.1.15,2013-10-20 03:27:00,
2013-10-19 22:32:00,39.7,37.0,29.67,SSW,198,1.0,2.0,90,0.00,,,0.00,Wunderground v.1.15,2013-10-20 03:32:00,
2013-10-19 22:37:00,39.6,36.9,29.68,South,182,1.0,2.0,90,0.00,,,0.00,Wunderground v.1.15,2013-10-20 03:37:00,
2013-10-19 22:42:00,39.5,36.8,29.67,SSW,201,1.0,2.0,90,0.00,,,0.00,Wunderground v.1.15,2013-10-20 03:42:00,
2013-10-19 22:47:00,39.4,37.0,29.68,South,174,2.0,3.0,91,0.00,,,0.00,Wunderground v.1.15,2013-10-20 03:47:00,
2013-10-19 22:52:00,39.4,37.0,29.68,South,177,0.0,3.0,91,0.00,,,0.00,Wunderground v.1.15,2013-10-20 03:52:00,
2013-10-19 22:57:00,39.3,36.9,29.68,SSE,152,1.0,4.0,91,0.00,,,0.00,Wunderground v.1.15,2013-10-20 03:57:00,
2013-10-19 23:01:00,39.3,36.9,29.67,SW,224,1.0,2.0,91,0.00,,,0.00,Wunderground v.1.15,2013-10-20 04:01:00,
2013-10-19 23:06:00,39.2,36.8,29.67,South,173,1.0,3.0,91,0.00,,,0.00,Wunderground v.1.15,2013-10-20 04:06:00,
2013-10-19 23:11:00,39.2,36.8,29.67,WSW,237,2.0,2.0,91,0.00,,,0.00,Wunderground v.1.15,2013-10-20 04:11:00,
2013-10-19 23:16:00,39.2,36.8,29.67,SSE,163,1.0,3.0,91,0.00,,,0.00,Wunderground v.1.15,2013-10-20 04:16:00,
2013-10-19 23:21:00,39.2,36.8,29.67,SSE,162,1.0,3.0,91,0.00,,,0.00,Wunderground v.1.15,2013-10-20 04:21:00,
2013-10-19 23:26:00,39.2,36.8,29.67,SSW,196,2.0,3.0,91,0.00,,,0.00,Wunderground v.1.15,2013-10-20 04:26:00,
2013-10-19 23:31:00,39.1,36.7,29.67,SW,214,3.0,3.0,91,0.00,,,0.00,Wunderground v.1.15,2013-10-20 04:31:00,
2013-10-19 23:36:00,39.2,36.8,29.67,SSE,162,1.0,3.0,91,0.00,,,0.00,Wunderground v.1.15,2013-10-20 04:36:00,
2013-10-19 23:41:00,39.2,36.8,29.67,SSW,205,1.0,3.0,91,0.00,,,0.00,Wunderground v.1.15,2013-10-20 04:41:00,
2013-10-19 23:46:00,39.2,36.8,29.67,South,174,3.0,4.0,91,0.00,,,0.00,Wunderground v.1.15,2013-10-20 04:46:00,
2013-10-19 23:52:00,39.2,36.8,29.67,SE,139,1.0,3.0,91,0.00,,,0.00,Wunderground v.1.15,2013-10-20 04:52:00,
2013-10-19 23:57:00,39.3,36.9,29.67,WSW,248,2.0,3.0,91,0.00,,,0.00,Wunderground v.1.15,2013-10-20 04:57:00,